This is the latest recevied weather packets stored in our database for station/object NT9G. If no packets are shown the sender has not sent any weather packets the latest 1 day(s).
| Time | Temp. | Humidity | Pressure | Rain* | Wind** | Luminosity | Snow |
|---|---|---|---|---|---|---|---|
| 1778057207 | 6.67° C | 70% | 1012.9 hPa | 0 mm | - | - | - |
| 1778056907 | 6.67° C | 70% | 1012.9 hPa | 0 mm | - | - | - |
| 1778056306 | 7.22° C | 68% | 1012.8 hPa | 0 mm | - | - | - |
| 1778056006 | 7.22° C | 68% | 1012.8 hPa | 0 mm | - | - | - |
| 1778055105 | 6.67° C | 68% | 1012.6 hPa | 0 mm | - | - | - |
| 1778053904 | 6.67° C | 66% | 1012.4 hPa | 0 mm | - | - | - |
| 1778053303 | 6.67° C | 63% | 1012.4 hPa | 0 mm | - | - | - |
| 1778053003 | 6.67° C | 63% | 1012.4 hPa | 0 mm | - | - | - |
| 1778052703 | 7.22° C | 64% | 1012.5 hPa | 0 mm | - | - | - |
| 1778052102 | 7.22° C | 66% | 1012.4 hPa | 0 mm | - | - | - |
| 1778051802 | 7.22° C | 67% | 1012.3 hPa | 0 mm | - | - | - |
| 1778051502 | 7.22° C | 66% | 1012.4 hPa | 0 mm | - | - | - |
| 1778050901 | 7.78° C | 65% | 1012.1 hPa | 0 mm | - | - | - |
| 1778050601 | 7.78° C | 66% | 1012.2 hPa | 0 mm | - | - | - |
| 1778049700 | 8.33° C | 64% | 1012.1 hPa | 0 mm | - | - | - |
| 1778049400 | 8.33° C | 63% | 1012.1 hPa | 0 mm | - | - | - |
| 1778048799 | 8.33° C | 62% | 1012.1 hPa | 0 mm | - | - | - |
| 1778048499 | 8.89° C | 62% | 1011.9 hPa | 0 mm | - | - | - |
| 1778047898 | 8.89° C | 60% | 1012 hPa | 0 mm | - | - | - |
| 1778047598 | 8.89° C | 61% | 1012.1 hPa | 0 mm | - | - | - |
| 1778046997 | 8.89° C | 62% | 1012 hPa | 0 mm | - | - | - |
| 1778046697 | 8.89° C | 61% | 1012 hPa | 0 mm | - | - | - |
| 1778046397 | 8.89° C | 60% | 1012 hPa | 0 mm | - | - | - |
| 1778045796 | 8.89° C | 58% | 1011.7 hPa | 0.25 mm | - | - | - |
| 1778045496 | 8.89° C | 59% | 1011.7 hPa | 0.25 mm | - | - | - |
* Rain since midnight (hover to see other rain measurements)
** Current wind speed in m/s (hover to see current wind gust speed)